GW0010 Weather Reports


Display with metric or nautical units.
time (UTC)temp
F
wind
direction
speed
MPH
gust
MPH
rain 1hr
in
rain 24hr
in
rain mn
in
humidity
%
barometer
mb
20260506191446 77 288 14.0 17.0 0.00 0.00 0.00 16 1026.8
20260506190445 77 248 7.0 13.0 0.00 0.00 0.00 16 1026.6
20260506185445 77 246 17.0 20.0 0.00 0.00 0.00 17 1026.8
20260506184445 78 217 13.0 17.0 0.00 0.00 0.00 17 1026.9
20260506183443 77 223 7.0 20.0 0.00 0.00 0.00 16 1027.0
20260506182438 77 261 11.0 22.0 0.00 0.00 0.00 17 1027.1
20260506181433 76 259 7.0 15.0 0.00 0.00 0.00 16 1027.1
20260506180432 76 244 9.0 17.0 0.00 0.00 0.00 16 1027.3
20260506175431 75 262 13.0 18.0 0.00 0.00 0.00 17 1027.4
20260506174426 74 270 10.0 16.0 0.00 0.00 0.00 16 1027.3
20260506173425 74 259 11.0 16.0 0.00 0.00 0.00 16 1027.3
20260506172425 75 250 9.0 15.0 0.00 0.00 0.00 16 1027.4
20260506171425 74 254 8.0 14.0 0.00 0.00 0.00 16 1027.6
20260506170425 73 256 6.0 18.0 0.00 0.00 0.00 16 1027.6
20260506165422 73 259 8.0 11.0 0.00 0.00 0.00 16 1027.6
20260506164420 73 276 6.0 13.0 0.00 0.00 0.00 16 1027.6
20260506163419 72 231 7.0 10.0 0.00 0.00 0.00 15 1027.5
20260506162418 73 278 9.0 11.0 0.00 0.00 0.00 14 1027.6
20260506161413 71 261 5.0 9.0 0.00 0.00 0.00 16 1027.6
20260506160413 71 251 6.0 10.0 0.00 0.00 0.00 16 1027.6
20260506155408 71 303 5.0 6.0 0.00 0.00 0.00 16 1027.6
20260506153530 69 7 1.0 6.0 0.00 0.00 0.00 17 1027.8
20260506152530 69 294 4.0 6.0 0.00 0.00 0.00 18 1027.8
20260506151526 69 278 4.0 7.0 0.00 0.00 0.00 17 1027.5
20260506150525 69 234 7.0 8.0 0.00 0.00 0.00 18 1027.6
20260506145525 68 229 2.0 6.0 0.00 0.00 0.00 18 1027.5
20260506144524 68 250 4.0 7.0 0.00 0.00 0.00 18 1027.4
20260506143520 68 245 4.0 7.0 0.00 0.00 0.00 18 1027.5
20260506142515 68 270 3.0 6.0 0.00 0.00 0.00 19 1027.0
20260506141511 69 268 2.0 3.0 0.00 0.00 0.00 19 1026.9
20260506140506 68 243 0.0 1.0 0.00 0.00 0.00 21 1027.1
20260506135506 66 198 3.0 3.0 0.00 0.00 0.00 22 1027.0
20260506134503 65 221 0.0 2.0 0.00 0.00 0.00 24 1026.8
20260506133503 64 218 3.0 6.0 0.00 0.00 0.00 24 1026.8
20260506132502 63 215 4.0 7.0 0.00 0.00 0.00 24 1026.2
20260506131457 63 227 4.0 7.0 0.00 0.00 0.00 24 1026.5
20260506130456 62 224 3.0 6.0 0.00 0.00 0.00 25 1026.1
20260506125452 62 257 7.0 8.0 0.00 0.00 0.00 25 1026.5
20260506124447 61 260 5.0 7.0 0.00 0.00 0.00 26 1026.1
20260506123442 60 249 3.0 6.0 0.00 0.00 0.00 27 1025.9
20260506122442 60 243 7.0 8.0 0.00 0.00 0.00 27 1025.9
20260506121437 61 234 6.0 7.0 0.00 0.00 0.00 26 1025.7
20260506120432 61 243 6.0 8.0 0.00 0.00 0.00 26 1025.6
20260506115427 62 247 5.0 7.0 0.00 0.00 0.00 27 1025.5
20260506114422 61 259 5.0 8.0 0.00 0.00 0.00 27 1025.3
20260506113418 62 266 6.0 7.0 0.00 0.00 0.00 26 1025.5
20260506112418 61 248 3.0 9.0 0.00 0.00 0.00 27 1025.2
20260506111413 61 254 5.0 7.0 0.00 0.00 0.00 29 1025.1
20260506110413 61 245 6.0 9.0 0.00 0.00 0.00 29 1025.2
20260506105412 61 248 6.0 8.0 0.00 0.00 0.00 29 1025.5
20260506104407 61 247 7.0 9.0 0.00 0.00 0.00 28 1025.1
20260506103402 61 251 5.0 10.0 0.00 0.00 0.00 28 1025.2
20260506102357 62 250 7.0 10.0 0.00 0.00 0.00 28 1025.2
20260506101356 62 258 5.0 9.0 0.00 0.00 0.00 28 1025.1
20260506100352 62 222 7.0 13.0 0.00 0.00 0.00 27 1025.2
20260506095347 63 269 7.0 9.0 0.00 0.00 0.00 27 1025.2
20260506094343 62 252 7.0 11.0 0.00 0.00 0.00 27 1025.1
20260506093343 62 246 7.0 11.0 0.00 0.00 0.00 28 1025.2
20260506092339 62 252 7.0 10.0 0.00 0.00 0.00 28 1025.2
20260506091339 62 261 7.0 10.0 0.00 0.00 0.00 28 1025.1
20260506090339 63 228 6.0 8.0 0.00 0.00 0.00 28 1025.1
20260506085338 64 246 7.0 10.0 0.00 0.00 0.00 27 1025.3
20260506084337 64 255 5.0 9.0 0.00 0.00 0.00 26 1025.5
20260506083337 65 244 5.0 9.0 0.00 0.00 0.00 25 1025.3
20260506082337 65 240 7.0 9.0 0.00 0.00 0.00 24 1025.7
20260506081337 65 250 8.0 13.0 0.00 0.00 0.00 24 1025.6
20260506080337 66 256 4.0 11.0 0.00 0.00 0.00 24 1025.5
20260506073327 65 265 7.0 11.0 0.00 0.00 0.00 26 1026.1
20260506072327 65 276 10.0 13.0 0.00 0.00 0.00 26 1026.1
20260506071323 64 287 9.0 9.0 0.00 0.00 0.00 26 1026.4
20260506070322 65 253 8.0 11.0 0.00 0.00 0.00 26 1026.4
20260506062306 66 272 6.0 13.0 0.00 0.00 0.00 25 1026.5
20260506061304 66 239 6.0 9.0 0.00 0.00 0.00 23 1026.8
20260506060300 67 230 3.0 6.0 0.00 0.00 0.00 23 1026.6
20260506051249 67 262 3.0 7.0 0.00 0.00 0.00 24 1027.0
20260506050244 68 250 5.0 8.0 0.00 0.00 0.00 23 1027.0
20260506044243 68 249 5.0 7.0 0.00 0.00 0.00 22 1026.6
20260506043238 68 262 7.0 10.0 0.00 0.00 0.00 22 1026.8
20260506042235 69 268 5.0 9.0 0.00 0.00 0.00 21 1026.1
20260506041230 69 276 7.0 10.0 0.00 0.00 0.00 21 1026.2
20260506040230 69 260 7.0 11.0 0.00 0.00 0.00 21 1026.2
20260506035229 70 239 8.0 9.0 0.00 0.00 0.00 20 1026.0
20260506034229 71 244 5.0 14.0 0.00 0.00 0.00 19 1025.7
20260506033229 71 231 10.0 14.0 0.00 0.00 0.00 18 1025.5
20260506032229 71 282 11.0 11.0 0.00 0.00 0.00 17 1025.1
20260506031229 72 249 6.0 15.0 0.00 0.00 0.00 17 1025.3
20260506030224 72 259 10.0 11.0 0.00 0.00 0.00 16 1025.2
20260506025223 73 253 9.0 13.0 0.00 0.00 0.00 16 1025.3
20260506024223 73 246 11.0 14.0 0.00 0.00 0.00 15 1024.8
20260506023222 73 260 10.0 14.0 0.00 0.00 0.00 15 1025.0
20260506022217 74 263 6.0 11.0 0.00 0.00 0.00 14 1024.8
20260506021217 74 247 6.0 10.0 0.00 0.00 0.00 14 1024.5
20260506020212 74 240 9.0 13.0 0.00 0.00 0.00 14 1024.5
20260506015212 75 246 7.0 10.0 0.00 0.00 0.00 14 1024.1
20260506014211 75 249 12.0 15.0 0.00 0.00 0.00 13 1024.3
20260506013206 76 275 6.0 14.0 0.00 0.00 0.00 13 1024.2
20260506012204 76 243 10.0 16.0 0.00 0.00 0.00 13 1023.9
20260506011203 77 236 8.0 14.0 0.00 0.00 0.00 12 1023.9
20260506010159 77 270 14.0 18.0 0.00 0.00 0.00 12 1023.7
20260506005159 78 253 9.0 11.0 0.00 0.00 0.00 12 1023.9
20260506004159 78 263 10.0 14.0 0.00 0.00 0.00 12 1023.8
20260506003156 78 238 11.0 17.0 0.00 0.00 0.00 12 1023.7
20260506002154 79 243 15.0 20.0 0.00 0.00 0.00 12 1023.8
20260506001154 79 246 18.0 21.0 0.00 0.00 0.00 12 1023.8
20260506000148 79 250 19.0 23.0 0.00 0.00 0.00 12 1023.7
20260505235149 79 261 15.0 22.0 0.00 0.00 0.00 12 1023.6
20260505234148 80 241 14.0 21.0 0.00 0.00 0.00 13 1023.3
20260505233148 80 246 7.0 21.0 0.00 0.00 0.00 12 1023.6
20260505232143 80 287 13.0 16.0 0.00 0.00 0.00 13 1023.4
20260505231139 81 251 8.0 23.0 0.00 0.00 0.00 13 1023.7
20260505230138 81 263 11.0 14.0 0.00 0.00 0.00 12 1023.6
20260505225137 80 260 14.0 17.0 0.00 0.00 0.00 13 1023.3
20260505224137 80 224 15.0 22.0 0.00 0.00 0.00 12 1023.6
20260505223136 81 270 19.0 25.0 0.00 0.00 0.00 12 1023.6
20260505222134 81 261 12.0 18.0 0.00 0.00 0.00 12 1023.7
20260505221134 80 259 16.0 23.0 0.00 0.00 0.00 12 1023.4
20260505220134 80 249 15.0 18.0 0.00 0.00 0.00 11 1023.8
20260505215130 80 223 16.0 23.0 0.00 0.00 0.00 11 1024.1
20260505214130 80 275 17.0 26.0 0.00 0.00 0.00 11 1024.2
20260505213130 81 214 12.0 22.0 0.00 0.00 0.00 11 1023.9
20260505212130 80 255 11.0 21.0 0.00 0.00 0.00 11 1024.3
20260505211130 80 225 10.0 22.0 0.00 0.00 0.00 12 1024.1
20260505210129 80 274 14.0 24.0 0.00 0.00 0.00 12 1024.6
20260505205124 80 250 10.0 21.0 0.00 0.00 0.00 11 1024.6
20260505204125 80 256 9.0 17.0 0.00 0.00 0.00 12 1024.8
20260505203124 79 203 13.0 22.0 0.00 0.00 0.00 12 1024.7
20260505202122 79 185 10.0 18.0 0.00 0.00 0.00 12 1025.0
20260505201123 79 242 12.0 17.0 0.00 0.00 0.00 12 1025.1
20260505200117 79 293 12.0 18.0 0.00 0.00 0.00 12 1025.2
20260505195117 78 238 14.0 22.0 0.00 0.00 0.00 13 1025.1
20260505194115 77 295 12.0 17.0 0.00 0.00 0.00 14 1025.6
20260505193115 77 252 9.0 16.0 0.00 0.00 0.00 13 1025.6
20260505192111 77 265 13.0 17.0 0.00 0.00 0.00 13 1025.9